OPS 4682 DEB, 51502

Orbit data source: Space-Track

OPS 4682 DEB, 51502 is space debris in LEO originally from a launch on Sat, 03 Apr 1965 UTC launched from the Air Force Western Test Range (AFWTR). Debris objects in space refer to the collection of defunct objects orbiting the Earth. Examples of debris include non-operational satellites, rocket bodies, and fragments generated from explosions, collisions, or faulty payload assembly.

Loading next visibility...
Identifier
51502, 1965-027GN
Orbit
LEO
Country
Flag of USUS
Related business
Manufacturer
Unknown
Mission
Spacecraft
Bus & Motor
Unknown
Mass
Unknown
Launch date (UTC)
1965-04-03 (61 years ago)
Launch vehicle
Unknown
Launch site
Air Force Western Test Range (AFWTR)
Object type
Payload
Rocket body
Debris
Shape & HBR
Unknown
Radar Cross Section
Small (<0.1 m²)

Expand to show TLE details & history
Last TLE update: 4 days ago

TLE from 4 days ago
0 OPS 4682 DEB
1 51502U 65027GN  26204.19865286  .00000776  00000-0  26136-2 0  9992
2 51502  90.2417   2.7973 0027573 266.6015  93.1952 12.98352952348837
Epoch: 2026-07-23T04:46Z
TLE epoch observation values (Epoch: 2026-07-23T04:46:03.607Z)
Latitude
-0°
Longitude
-9.66081°
Altitude
1,272.661 km
Speed
7.219 km/s
True Right ascension
00h 11m 11s
True Declination
0° 00' 00"
Sunlit
Object was in daylight at epoch
Visualization orbit readout
Latitude
Unknown
Longitude
Unknown
Altitude
Unknown
Speed
Unknown
Apparent Right ascension
Unknown
Apparent Declination
Unknown
Sunlit
N/A
Visualization observer readout
Local Sidereal Time
19:38:38
Azimuth
Unknown
Elevation
Unknown
Doppler factor
Unknown
Orbital elements
Apogee altitude
1,286.752 km
Perigee altitude
1,244.6 km
Semi-major axis
7,643.813 km
Eccentricity
0.00276
Inclination
90.2417°
RAAN
2.7973°
Arg. of periapsis
266.6015°
True anomaly
93.51061°
Mean anomaly
93.1952°
Eccentric anomaly
93.35291°
Mean motion
3.24772 °/min
Orbital period
110.85 mins
BSTAR
0.0026136
Loading maneuver chart data...
Computing Atmospheric mass density...
Loading historical data...
Loading historical data...
Loading historical data...
Loading historical data...
Loading historical data...
Loading historical data...
Loading historical data...

Documentation

Showing up to 5 results
|